Geneva, Switzerland

3:42 PM CEST on August 26, 2016 (GMT +0200)
Cointrin

Weather History for LSGG - May, 2013

Change the Weather History Date:

Sunday, May 19, 2013

  Actual Average Record
Temperature  
Mean Temperature 52 °F -  
Max Temperature 57 °F 68 °F 80 °F (2004)
Min Temperature 46 °F 49 °F 39 °F (2001)
Degree Days  
Heating Degree Days 14    
Growing Degree Days 2 (Base 50)    
Moisture  
Dew Point 45 °F    
Average Humidity 83    
Maximum Humidity 100    
Minimum Humidity 51    
Precipitation  
Precipitation 0.16 in 0.10 in - ()
Sea Level Pressure  
Sea Level Pressure 29.86 in    
Wind  
Wind Speed 8 mph ()    
Max Wind Speed 17 mph    
Max Gust Speed 28 mph    
Visibility 5.7 miles    
Events Rain    
Averages and records for this station are not official NWS values.
T = Trace of Precipitation, MM = Missing Value Source: Averaged Metar Reports

Daily Weather History Graph

Daily Weather History Graph

Search for Another Location

Airport or City:

Trip Planner

Search our weather history database for the weather conditions in past years. The results will help you decide how hot, cold, wet, or windy it might be!

Date:

Astronomy

May. 19, 2013 Rise Set
Actual Time 5:58 AM CEST 9:06 PM CEST
Civil Twilight 5:22 AM CEST 9:42 PM CEST
Nautical Twilight 4:35 AM CEST 10:29 PM CEST
Astronomical Twilight 3:38 AM CEST 11:26 PM CEST
Moon 2:34 PM CEST (5/19) 2:35 AM CEST (5/19)
Length of Visible Light 16h 20m
Length of Day
15h 08m
Waxing Gibbous, 62% of the Moon is Illuminated
May 19
Waxing Gibbous
May 25
Full
May 31
Last Quarter
Jun 8
New
Jun 16
First Quarter

Hourly Weather History & Observations

Time (CEST) Temp. Windchill Dew Point Humidity Pressure Visibility Wind Dir Wind Speed Gust Speed Precip Events Conditions
12:00 AM 48 °F - 42 °F 73% 29.79 in - SSW 17.3 mph - -  
12:20 AM 48.2 °F - 44.6 °F 87% 29.77 in 4.3 mi SW 12.7 mph - N/A Rain Rain
12:50 AM 46.4 °F 40.7 °F 44.6 °F 93% 29.77 in 4.3 mi WSW 12.7 mph - N/A Rain Rain
1:00 AM 47 °F - 44 °F 83% 29.81 in - WSW 9.2 mph - -  
1:20 AM 46.4 °F 41.5 °F 44.6 °F 93% 29.80 in 4.3 mi SW 10.4 mph - N/A Rain Rain
1:50 AM 46.4 °F 44.3 °F 44.6 °F 93% 29.80 in 4.3 mi SW 4.6 mph - N/A Rain Rain
2:00 AM 46 °F - 43 °F 86% 29.82 in 4 mi SSW 2.3 mph - - Rain Rain
2:20 AM 44.6 °F - 44.6 °F 100% 29.80 in 4.3 mi Variable 1.2 mph - N/A Rain Rain
2:50 AM 46.4 °F - 44.6 °F 93% 29.77 in 5.0 mi Calm Calm - N/A Rain Light Rain
3:00 AM 46 °F - 44 °F 90% 29.81 in - NNE 4.6 mph - -  
3:50 AM 44.6 °F 43.1 °F 44.6 °F 100% 29.77 in 6.2 mi Variable 3.5 mph - N/A Rain Light Rain
4:00 AM 46 °F - 44 °F 89% 29.80 in - NNE 4.6 mph - -  
4:20 AM 44.6 °F 42.2 °F 44.6 °F 100% 29.77 in 6.2 mi NNE 4.6 mph - N/A Rain Light Rain
4:50 AM 44.6 °F 41.4 °F 44.6 °F 100% 29.77 in 6.2 mi NNE 5.8 mph - N/A Rain Light Rain
5:20 AM 44.6 °F 41.4 °F 44.6 °F 100% 29.77 in 6.2 mi NNE 5.8 mph - N/A Rain Light Rain
5:50 AM 44.6 °F 39.7 °F 44.6 °F 100% 29.77 in 6.2 mi ENE 9.2 mph - N/A Rain Light Rain
6:00 AM 46 °F - 44 °F 89% 29.81 in - NE 9.2 mph - -  
6:20 AM 44.6 °F 43.1 °F 44.6 °F 100% 29.80 in 6.2 mi NE 3.5 mph - N/A   Mostly Cloudy
6:50 AM 44.6 °F 43.1 °F 44.6 °F 100% 29.80 in 6.2 mi Variable 3.5 mph - N/A   Mostly Cloudy
7:00 AM 47 °F - 45 °F 88% 29.81 in - North 3.5 mph - -  
7:20 AM 46.4 °F 45.2 °F 46.4 °F 100% 29.80 in 6.2 mi North 3.5 mph - N/A   Mostly Cloudy
7:50 AM 46.4 °F 43.5 °F 44.6 °F 93% 29.83 in 6.2 mi ENE 5.8 mph - N/A   Mostly Cloudy
8:00 AM 47 °F - 45 °F 91% 29.85 in 40 mi NNE 6.9 mph - -   Partly Cloudy
8:20 AM 48.2 °F - 46.4 °F 93% 29.83 in 6.2 mi NNE 6.9 mph - N/A   Mostly Cloudy
8:50 AM 48.2 °F - 46.4 °F 93% 29.83 in 6.2 mi NNE 5.8 mph - N/A   Mostly Cloudy
9:00 AM 48 °F - 44 °F 81% 29.84 in - NNE 8.1 mph - -  
9:20 AM 50.0 °F - 46.4 °F 87% 29.83 in 6.2 mi NE 8.1 mph - N/A   Mostly Cloudy
9:50 AM 50.0 °F - 44.6 °F 82% 29.83 in 6.2 mi NE 8.1 mph - N/A   Mostly Cloudy
10:00 AM 51 °F - 45 °F 72% 29.84 in - NE 11.5 mph - -  
10:20 AM 50.0 °F - 42.8 °F 76% 29.83 in 6.2 mi NE 8.1 mph - N/A   Mostly Cloudy
10:50 AM 51.8 °F - 42.8 °F 71% 29.83 in 6.2 mi NE 6.9 mph - N/A   Mostly Cloudy
11:20 AM 51.8 °F - 41.0 °F 67% 29.83 in 6.2 mi NNE 6.9 mph - N/A   Mostly Cloudy
11:50 AM 51.8 °F - 41.0 °F 67% 29.83 in 6.2 mi East 4.6 mph - N/A   Mostly Cloudy
12:00 PM 51 °F - 39 °F 54% 29.86 in - ENE 3.5 mph - -  
12:20 PM 51.8 °F - 42.8 °F 71% 29.86 in 3.7 mi Variable 3.5 mph - N/A Rain Rain Showers
12:50 PM 51.8 °F - 46.4 °F 82% 29.86 in 6.2 mi WSW 5.8 mph - N/A Rain Light Rain
1:00 PM 52 °F - 46 °F 75% 29.88 in - West 6.9 mph - -  
1:20 PM 53.6 °F - 48.2 °F 82% 29.86 in 6.2 mi SW 10.4 mph - N/A Rain Light Rain
1:50 PM 55.4 °F - 44.6 °F 67% 29.86 in 6.2 mi SSW 17.3 mph - N/A   Mostly Cloudy
2:00 PM 55 °F - 45 °F 59% 29.86 in 34 mi SW 13.8 mph - - Rain Light Rain
2:20 PM 53.6 °F - 46.4 °F 77% 29.86 in 6.2 mi WSW 9.2 mph - N/A   Mostly Cloudy
2:50 PM 55.4 °F - 44.6 °F 67% 29.86 in 6.2 mi SW 9.2 mph - N/A   Mostly Cloudy
3:00 PM 56 °F - 43 °F 51% 29.87 in - SW 13.8 mph - -  
3:20 PM 57.2 °F - 44.6 °F 63% 29.86 in 6.2 mi SW 13.8 mph - N/A   Mostly Cloudy
3:50 PM 53.6 °F - 48.2 °F 82% 29.89 in 6.2 mi WSW 10.4 mph - N/A Rain Light Rain Showers
4:00 PM 54 °F - 46 °F 68% 29.90 in - West 10.4 mph - -  
4:20 PM 53.6 °F - 46.4 °F 77% 29.89 in 6.2 mi WSW 12.7 mph - N/A   Mostly Cloudy
4:50 PM 53.6 °F - 46.4 °F 77% 29.89 in 6.2 mi SW 11.5 mph - N/A   Mostly Cloudy
5:20 PM 55.4 °F - 46.4 °F 72% 29.89 in 6.2 mi SW 10.4 mph - N/A   Mostly Cloudy
5:50 PM 55.4 °F - 44.6 °F 67% 29.89 in 6.2 mi SW 10.4 mph - N/A   Mostly Cloudy
6:00 PM 54 °F - 43 °F 56% 29.90 in - SW 9.2 mph - -  
6:20 PM 55.4 °F - 44.6 °F 67% 29.89 in 6.2 mi SW 9.2 mph - N/A   Mostly Cloudy
6:50 PM 51.8 °F - 48.2 °F 88% 29.89 in 6.2 mi WSW 8.1 mph - N/A Rain Light Rain Showers
7:00 PM 53 °F - 47 °F 72% 29.91 in - WSW 5.8 mph - -  
7:20 PM 50.0 °F - 44.6 °F 82% 29.92 in 3.1 mi SW 16.1 mph 27.6 mph N/A Rain Heavy Rain Showers
7:50 PM 48.2 °F - 46.4 °F 93% 29.92 in 5.0 mi SSW 9.2 mph - N/A Rain Light Rain Showers
8:00 PM 48 °F - 46 °F 88% 29.95 in 4 mi South 10.4 mph - - Rain Heavy Rain Showers
8:20 PM 48.2 °F - 46.4 °F 93% 29.92 in 6.2 mi SSW 10.4 mph - N/A Rain Light Rain Showers
8:50 PM 48.2 °F - 46.4 °F 93% 29.95 in 6.2 mi WSW 4.6 mph - N/A Rain Light Rain Showers
9:00 PM 48 °F - 45 °F 87% 29.96 in - SW 5.8 mph - -  
9:20 PM 48.2 °F - 46.4 °F 93% 29.95 in 5.6 mi SW 3.5 mph - N/A Rain Light Rain Showers
9:50 PM 48.2 °F - 46.4 °F 93% 29.95 in 5.6 mi SW 8.1 mph - N/A Rain Light Rain Showers
10:00 PM 47 °F - 44 °F 87% 29.99 in - SSW 10.4 mph - -  
10:20 PM 48.2 °F - 44.6 °F 87% 29.98 in 5.6 mi SSW 11.5 mph - N/A Rain Light Rain Showers
10:50 PM 48.2 °F - 46.4 °F 93% 29.98 in 6.2 mi SSW 8.1 mph - N/A Rain Light Rain Showers
11:20 PM 46.4 °F 45.2 °F 46.4 °F 100% 29.98 in 6.2 mi West 3.5 mph - N/A   Mostly Cloudy
11:50 PM 46.4 °F 44.3 °F 46.4 °F 100% 29.98 in 6.2 mi WSW 4.6 mph - N/A   Mostly Cloudy